Location: Ripley
(48.3812°N, 115.4473°W)
Time: 12:31:22
(UTC+00:00)

RS-15 - Pass Details

Date: 28 June 2022
Orbit: 1881 x 2163 km, 64.8° (Epoch: 13 August)

Event Time Altitude Azimuth Distance (km) Brightness Sun altitude
Rises 10:03:39 0° 320° (NW) 5,698 10.7 -11.9°
Reaches altitude 10° 10:08:09 10° 307° (NW) 4,679 10.1 -11.5°
Maximum altitude 10:16:42 23° 262° (W) 3,658 9.1 -10.7°
Enters shadow 10:24:31 11° 218° (SW) 4,440 9.2 -10.0°
